Terminal Aerodrome Forecast
Issued by NWS

Home | Current Version | Previous Version | Text Only | Print | Product List | Glossary On
Versions: 1 2 3 4 5 6 7 8 9 10 11 12 13 14 15 16 17 18 19 20
000
FTUS41 KCAR 030329 AAB
TAFHUL
TAF AMD
KHUL 030329Z 0303/0324 30017G30KT P6SM FEW025 SCT070
     FM031100 32012KT P6SM SKC
     FM032100 18005KT P6SM SCT100 BKN180=

USA.gov is the U.S. government's official web portal to all federal, state and local government web resources and services.